Location: Black River Observatory
(43.1000°N, 82.6200°W)
Time: 18:51:05
(UTC-05:00)

Daily predictions for brighter satellites

Satellite Brightness Start Highest point End
(mag) Time Altitude Azimuth Time Altitude Azimuth Time Altitude Azimuth
NOSS 3-2 (C) 4.2 18:38:17 10° SW 18:44:09 56° NW 18:50:44 10° NNE
Cosmos 2034 Rocket 4.4 18:38:35 10° N 18:44:36 41° ENE 18:50:33 10° SE
SJ-6B 4.3 18:42:08 10° ESE 18:44:43 18° ENE 18:47:20 10° NNE
Cosmos 1812 2.7 18:43:04 10° N 18:46:58 87° E 18:50:51 10° S
Meteor 1-20 Rocket 4.4 18:42:15 10° S 18:47:50 56° E 18:53:31 10° NNE
SKYMED 2 3.7 18:44:38 10° N 18:49:01 83° WNW 18:53:20 10° SSW
Envisat 4.2 18:45:46 10° ESE 18:49:31 21° ENE 18:53:16 10° NNE
MOS 1 4.3 18:45:56 10° SSE 18:51:36 87° ENE 18:57:20 10° NNW
Cosmos 468 4.5 18:46:58 10° S 18:52:12 73° ESE 18:57:26 10° NNE
Cosmos 2263 Rocket 3.8 18:49:50 10° ESE 18:52:18 13° E 18:54:46 10° ENE
ATLAS CENTAUR R/B 3.2 18:53:30 10° N 18:56:03 16° NE 18:58:21 11° ENE
Cosmos 1975 Rocket 3.8 18:52:07 10° N 18:56:09 32° ENE 19:00:10 10° SE
CENTAUR R/B 2.5 18:52:23 10° SSW 18:58:22 85° SE 19:05:17 10° NE
Okean 1 3.5 18:54:45 10° N 18:58:37 46° ENE 19:02:26 10° SSE
Meteor 1-14 Rocket 4.3 18:53:42 10° S 18:59:31 84° E 19:05:29 10° NNE
NOAA 12 4.3 18:55:24 10° SSE 19:00:43 81° WSW 19:06:05 10° NNW
MOS 1-B Rocket 4.3 18:57:12 10° S 19:03:25 71° WSW 19:09:06 10° NNW
Cosmos 1602 4.4 19:00:58 10° SSE 19:04:26 32° E 19:07:55 10° NNE
Thor Agena Rocket 4.4 19:01:47 10° NE 19:06:03 27° E 19:10:18 10° SSE
Cosmos 1269 Rocket 4.1 19:01:24 10° S 19:06:32 56° ESE 19:11:43 10° NNE
USA 267 4.4 19:01:11 10° ENE 19:06:36 29° N 19:12:00 10° NW
Meteor 1-4 Rocket 3.8 19:04:29 10° SE 19:07:09 21° E 19:09:53 10° NE
BREEZE-M R/B 3.2 19:06:24 10° WNW 19:08:44 70° NNE 19:14:37 11° ESE
USA 32 4.1 19:04:47 10° SSE 19:09:54 58° E 19:15:02 10° NNE
CZ-4 R/B 4.4 19:09:50 10° SW 19:12:51 20° W 19:15:51 10° NW
Cosmos 1513 Rocket 4.5 19:09:15 10° N 19:15:37 85° E 19:21:51 10° S
Cosmos 1378 Rocket 3.7 19:11:22 10° N 19:15:48 77° W 19:20:13 10° S
OAO 2 Rocket 4.4 19:12:01 10° WSW 19:16:26 32° S 19:19:59 14° ESE
Resurs 01 Rocket 2.9 19:15:19 17° E 19:16:46 20° ENE 19:20:01 10° NNE
Meteor 1-18 Rocket 4.4 19:12:53 10° NNW 19:18:29 78° W 19:24:00 10° S
FREGAT/IRIS 2.4 19:15:57 10° SSE 19:18:53 67° ENE 19:21:51 10° N
EO 1 Del DPAF 3.4 19:15:35 10° N 19:19:25 77° WNW 19:23:13 10° SSW
Meteor 2-4 Rocket 4.3 19:14:38 10° N 19:19:59 37° ENE 19:25:08 10° SE
Cosmos 2227 4.3 19:14:40 10° S 19:20:13 55° ESE 19:25:47 10° NNE
Landsat 4 4.4 19:18:05 10° N 19:21:47 56° WNW 19:25:28 10° SSW
Iridium 4 Rocket 3.2 19:17:44 10° N 19:22:32 90° SSE 19:26:55 10° S
YAOGAN 6 4.5 19:26:58 15° NE 19:26:58 15° NE 19:28:13 10° NNE
CZ-4C R/B 3.4 19:20:39 10° NNW 19:27:09 39° NE 19:31:55 20° E
Alouette 2 Rocket 4.0 19:24:26 10° SSE 19:27:32 28° E 19:30:49 10° NNE
Cosmos 1437 Rocket 2.8 19:23:56 10° S 19:27:59 83° ESE 19:32:08 10° NNE
Cosmos 1782 Rocket 3.5 19:24:15 10° S 19:28:41 80° E 19:33:07 10° N
SL-8 R/B 4.2 19:24:01 10° W 19:28:43 53° NNW 19:31:56 19° ENE
Meteor 1-19 Rocket 4.2 19:23:17 10° N 19:28:45 61° ENE 19:34:15 10° SSE
Cosmos 1331 Rocket 4.1 19:27:33 10° NNW 19:32:46 53° ENE 19:37:34 12° SE
Cosmos 1633 4.4 19:30:55 10° SW 19:34:11 33° WNW 19:37:28 10° N
Meteor 1-11 Rocket 3.8 19:33:14 10° SSE 19:38:35 50° E 19:44:06 10° NNE
Spot 2 Rocket 4.3 19:37:43 26° E 19:39:01 30° ENE 19:43:24 10° N
Cosmos 1943 3.4 19:37:13 10° NNW 19:42:41 48° ENE 19:45:39 25° ESE
Tsikada Rocket 4.0 19:37:15 10° S 19:43:40 82° E 19:50:06 10° N
Sich 1 Rocket 4.4 19:39:28 10° SSW 19:43:50 53° W 19:48:13 10° N
USA 186 3.0 19:46:06 29° NNE 19:46:06 29° NNE 19:48:11 10° N
Gbstr 26 Del rocket 2.5 19:42:52 10° SW 19:46:35 77° SE 19:47:47 42° ENE
Cosmos 2251 Rocket 3.8 19:48:51 10° S 19:53:45 43° ESE 19:56:08 26° NE
Okean 2 Rocket 3.0 19:50:36 10° S 19:55:00 87° WNW 19:59:26 10° N
ARGOS Delta rocket 3.6 19:51:08 10° NNE 19:55:58 80° E 20:00:30 10° S
ERS-2 3.7 19:55:12 10° SSW 19:58:37 37° W 20:02:05 10° NNW
Cosmos 1939 Rocket 3.2 20:01:05 47° NE 20:01:05 47° NE 20:04:39 10° N
Cosmos 1302 Rocket 4.0 19:59:07 10° NNW 20:04:14 55° ENE 20:05:18 47° ESE
Cosmos 2151 Rocket 3.5 20:00:11 10° S 20:04:37 62° E 20:09:01 10° NNE
SeaSat 1 2.3 20:04:38 34° SE 20:06:51 81° ENE 20:11:49 10° NNW
COSMOS 2455 2.7 20:06:55 10° SSW 20:12:56 81° ESE 20:17:37 18° NNE
Cosmos 1184 Rocket 3.5 20:10:43 10° NNW 20:13:29 52° NW 20:13:29 52° NW
Meteor 1-23 Rocket 4.2 20:08:30 10° N 20:14:19 66° ENE 20:16:31 38° SSE
USA 215 3.2 20:11:44 32° ENE 20:14:56 69° SE 20:21:26 10° SW
Meteor 2-9 4.5 20:12:00 10° S 20:17:23 74° E 20:22:54 10° NNE
Cosmos 2279 Rocket 4.0 20:12:57 10° N 20:19:02 53° ENE 20:19:44 51° E
SJ-6B 4.3 20:15:37 10° SSW 20:19:06 35° W 20:22:42 10° NNW
Envisat 3.8 20:23:13 10° S 20:28:09 51° W 20:33:07 10° NNW
Resurs 1-3 3.8 20:33:27 65° WSW 20:33:39 66° WSW 20:38:03 10° NNW
Cosmos 2263 Rocket 2.1 20:29:48 10° SSW 20:35:23 85° WNW 20:37:35 39° NNE
ATLAS CENTAUR R/B 2.0 20:31:17 10° NW 20:34:39 56° NW 20:34:39 56° NW
Cosmos 1634 Rocket 4.3 20:34:31 10° NNW 20:40:37 64° W 20:46:42 10° S
USA 267 3.4 20:48:25 53° NE 20:48:45 54° NNE 20:55:05 10° NW
CENTAUR R/B 4.4 20:44:40 10° W 20:50:00 27° NNW 20:55:56 10° NNE
Resurs 01 Rocket 2.7 20:52:52 41° WSW 20:52:58 41° W 20:57:09 10° NNW
CZ-3C R/B 4.4 20:54:10 10° SSW 20:57:13 19° S 20:57:13 19° S
H-2A R/B 4.2 21:18:36 19° N 21:18:36 19° N 21:20:06 10° N
CZ-4C R/B 3.2 21:09:00 10° NW 21:16:08 61° WSW 21:17:10 57° SSW
USA 215 4.3 21:59:06 40° WNW 21:59:06 40° WNW 22:03:52 10° W
